Regional Weather Roundup
Issued by NWS Upton, NY

Current Version | Previous Version | Graphics & Text | Print | Product List | Glossary Off
Versions: 1 2 3 4 5 6 7 8 9 10 11 12 13 14 15 16 17 18 19 20 21 22 23 24 25 26 27 28 29 30 31 32 33 34 35 36 37 38 39 40 41 42 43 44 45 46 47 48 49
057 ASUS41 KOKX 141004 RWROKX REGIONAL WEATHER ROUNDUP NATIONAL WEATHER SERVICE NEW YORK NY 500 AM EST SUN FEB 14 2016 NOTE: "FAIR" INDICATES FEW OR NO CLOUDS BELOW 12,000 FEET WITH NO SIGNIFICANT WEATHER AND/OR OBSTRUCTIONS TO VISIBILITY. NYZ071-072-176-178-NJZ106-104-141100- NEW YORK CITY METRO AREA CITY SKY/WX TMP DP RH WIND PRES REMARKS CENTRAL PARK CLEAR 3 -16 40 NW9G23 30.41R WCI -12 LAGUARDIA APRT PTCLDY 4 -9 55 NW22G31 30.40R WCI -18 KENNEDY INTL PTCLDY 4 -17 37 NW23G36 30.41R WCI -18 NEWARK/LIBERTY PTCLDY 3 -13 47 NW15G21 30.42R WCI -16 BRNX BOT. GARD N/A 3 -15 43 W6 30.39R WCI -8 TETERBORO PTCLDY 2 -17 41 NW21G33 30.41R WCI -20 $$ NYZ177-179-078>081-141100- LONG ISLAND NEW YORK CITY SKY/WX TMP DP RH WIND PRES REMARKS FARMINGDALE CLEAR 6 -16 35 NW20G31 30.38R WCI -14 ISLIP PTCLDY 2 -14 47 NW17 30.36R WCI -18 SHIRLEY PTCLDY 0 -12 57 NW13G26 30.38R WCI -18 RIVERHEAD N/A 1 -22 32 W8 30.33R WCI -12 WESTHAMPTON CLEAR -2 -12 62 NW12G23 30.37R WCI -20 EAST HAMPTON FAIR -1 -15 51 NW15G31 30.32R WCI -21 MONTAUK POINT N/A -1 -10 65 NW21G29 30.33R WCI -24 $$ NYZ052-065-067-141100- HUDSON VALLEY CITY SKY/WX TMP DP RH WIND PRES REMARKS WHITE PLAINS PTCLDY -2 -17 49 NW24G37 30.32R WCI -26 NEWBURGH CLEAR -4 -17 54 NW16G28 30.37R WCI -25 MONTGOMERY CLEAR -4 -19 48 NW13G22 30.38R WCI -23 POUGHKEEPSIE CLEAR -4 -21 44 NE12 30.42R WCI -22 ALBANY PTCLDY -13 -26 52 NW13 30.45R WCI -34 $$ NJZ001-105-106-008-010-013-015-019>022-104-141100- NEW JERSEY CITY SKY/WX TMP DP RH WIND PRES REMARKS NEWARK/LIBERTY PTCLDY 3 -13 47 NW15G21 30.42R WCI -16 TETERBORO PTCLDY 2 -17 41 NW21G33 30.41R WCI -20 CALDWELL CLEAR 1 -18 40 NW17G26 30.42R WCI -19 MORRISTOWN CLEAR 1 -15 46 NW6 30.40R WCI -10 SOMERVILLE PTCLDY 4 -14 43 NW10 30.40R WCI -11 SUSSEX CLEAR -3 -17 51 NW12G25 30.37R WCI -21 ANDOVER N/A -3 -16 53 VRB5 30.38R WCI -13 TRENTON CLEAR 6 -10 47 NW13G22 30.41R WCI -10 MILLVILLE CLEAR 11 -6 46 NW12G18 30.44R WCI -3 ATLANTIC CITY CLEAR 10 -9 42 NW14 30.41R WCI -6 WRIGHTSTOWN NOT AVBL TOMS RIVER CLEAR 7 -8 51 NW8 30.41R WCI -6 BELMAR CLEAR 7 -17 33 NW16 30.39R WCI -11 $$ PAZ047>061-062-071-141100- EASTERN PENNSYLVANIA CITY SKY/WX TMP DP RH WIND PRES REMARKS PHILADELPHIA PTCLDY 10 -10 40 NW16 30.45R WCI -7 ALLENTOWN CLEAR 4 -11 50 NW20G25 30.40R WCI -17 SCRANTON MOCLDY -3 -15 56 N13 30.36R WCI -22 $$ CTZ002-004>006-009-010-012-RIZ004-006-007-MAZ004-011-015-141100- SOUTHERN NEW ENGLAND IN CT CITY SKY/WX TMP DP RH WIND PRES REMARKS BRADLEY INTL CLEAR -10 -26 45 N9 30.34R WCI -27 HARTFORD CLEAR -7 -25 41 NW9 30.38R WCI -24 DANBURY CLEAR -8 -24 45 VRB7 30.36R WCI -23 WTRBRY/OXFORD PTCLDY -9 -31 34 NW7G16 30.30R WCI -24 BRIDGEPORT CLEAR -4 -20 46 NW7 30.40R WCI -18 MERIDEN CLEAR -6 -26 37 W12G20 30.36R WCI -25 NEW HAVEN CLEAR -6 -21 48 NW9G20 30.38R WCI -23 CHESTER FAIR -6 -24 41 NW13G22 30.29R WCI -25 GROTON CLEAR -6 -15 65 NW16 30.33R WCI -28 WILLIMANTIC PTCLDY -9 -27 41 NW7 30.32R WCI -24 IN RI CITY SKY/WX TMP DP RH WIND PRES REMARKS PROVIDENCE CLEAR -9 -25 45 NW12 30.29R WCI -28 BLOCK ISLAND PTCLDY -2 -11 65 NW18G25 30.26R WCI -24 WESTERLY CLEAR -7 -25 41 NW7 30.31R WCI -21 IN MA CITY SKY/WX TMP DP RH WIND PRES REMARKS BOSTON PTCLDY -9 -25 45 W21G28 30.27R WCI -34 WORCESTER CLEAR -15 -27 54 W24G33 30.13R HAZE WCI -44 WESTFIELD CLEAR -11 -27 45 NW15 30.32R WCI -33 PROVINCETOWN LGT SNOW -1 -7 75 NW21G31 30.20R WCI -24 NANTUCKET CLOUDY -1 -11 62 NW23G30 30.19R WCI -25 $$ ANZ330-335-338-340-345-350-353-355-141100- COASTAL MARINE OBSERVATIONS STATION/POSITION TIME SKY/WX TEMP WIND PRES VSBY WAVE AIR SEA DIR/SP/G HT/PER (UTC) (F) (DEG/KT/KT) (MB) (MI) (FT/S) NY HARB ENTRANCE 0850 10 43 320/ 23/ 31 1027.6 4/ 5 4S FIRE IS NOT AVBL 20S FIRE ISLAND 0850 11 40 320/ 23/ 33 1026.8 6/ 6 GREAT SOUTH BAY NOT AVBL 23SW MTP 0950 7 43 300/ 33/ 39 1025.6 9/ 6 HUDSON CANYON 0850 16 48 1025.5 12/ 9 KINGS POINT 0900 5 31 360/ 22/ 31 1028.3 EXECUTION ROCKS NOT AVBL CENTRAL LI SOUND 0900 2 300/ 21/ 29 N/A 4/ 4 EASTERN LI SOUND 0900 2 40 290/ 23/ 31 N/A ROBBINS REEF 0900 5 320/ 16/ 22 1028.1 $$ >>>>>>>>>>>>>>>>>>>>>>>>>>>> KEY <<<<<<<<<<<<<<<<<<<<<<<<<<< > < > SKY/WX - SKY CONDITION/PRESENT WEATHER < > TMP - TEMPERATURE IN FAHRENHEIT < > DP - DEWPOINT IN FAHRENHEIT < > RH - RELATIVE HUMIDITY IN PERCENT < > WIND - DIRECTION AND SPEED IN MPH < > PRES - MEAN SEA LEVEL PRESSURE IN INCHES OF HG < > WCI - WIND CHILL INDEX < > VSB - VISIBILITY IN MILES < > HX - HEAT INDEX < > TC - TEMPERATURE IN CELSIUS < > VRB - VARIABLE WIND DIRECTION < > < >>>>>>>>>>>>>>>>>>>>>>>>>>>> KEY <<<<<<<<<<<<<<<<<<<<<<<<<<<

USA.gov is the U.S. government's official web portal to all federal, state and local government web resources and services.